Tracking 19279 objects as of 12-Nov-2018
HD Live streaming from Space Station
objects crossing your sky now

ACTS

Track ACTS now!
ACTS is classified as:


NORAD ID: 22796
Int'l Code: 1993-058B
Perigee: 35,668.8 km
Apogee: 35,918.3 km
Inclination: 14.4 °
Period: 1,436.1 minutes
Semi major axis: 42164 km
RCS: 21.8582 m2 (large)
Launch date: September 12, 1993
Source: United States (US)
Launch site: AIR FORCE EASTERN TEST RANGE (AFETR)
aabbcc
Your satellite tracking list
Your tracking list is empty




NASA's NSSDC Master Catalog

Two Line Element Set (TLE):
1 22796U 93058B   18315.27262833 -.00000110 +00000-0 +00000-0 0  9995
2 22796 014.3645 018.4239 0029579 007.6480 016.4069 01.00272499099081
Source of the keplerian elements: AFSPC